TimeCDT,TemperatureF,Dew PointF,Humidity,Sea Level PressureIn,VisibilityMPH,Wind Direction,Wind SpeedMPH,Gust SpeedMPH,PrecipitationIn,Events,Conditions,WindDirDegrees,DateUTC
12:15 AM,34.3,18.3,52,30.06,10.0,NNW,11.5,-,N/A,,Clear,340,2011-10-19 05:15:00
12:35 AM,33.1,18.5,55,30.06,10.0,NNW,10.4,-,N/A,,Clear,340,2011-10-19 05:35:00
12:55 AM,32.2,18.5,57,30.06,10.0,NNW,9.2,-,N/A,,Clear,340,2011-10-19 05:55:00
1:15 AM,31.8,18.3,57,30.05,10.0,North,10.4,-,N/A,,Clear,350,2011-10-19 06:15:00
1:35 AM,30.9,18.3,60,30.05,10.0,North,10.4,-,N/A,,Clear,350,2011-10-19 06:35:00
1:55 AM,30.7,18.9,61,30.06,10.0,North,11.5,-,N/A,,Clear,350,2011-10-19 06:55:00
2:15 AM,30.7,19.2,62,30.06,10.0,North,10.4,-,N/A,,Clear,350,2011-10-19 07:15:00
2:55 AM,30.0,19.4,65,30.06,10.0,NNW,10.4,-,N/A,,Clear,340,2011-10-19 07:55:00
3:15 AM,30.0,19.4,65,30.05,10.0,NNW,10.4,-,N/A,,Clear,340,2011-10-19 08:15:00
3:35 AM,29.3,19.4,67,30.05,10.0,NNW,9.2,-,N/A,,Clear,340,2011-10-19 08:35:00
3:55 AM,29.1,19.4,67,30.05,10.0,NNW,9.2,-,N/A,,Clear,330,2011-10-19 08:55:00
4:15 AM,29.1,19.8,68,30.05,10.0,NNW,10.4,-,N/A,,Clear,330,2011-10-19 09:15:00
4:35 AM,28.8,20.1,70,30.05,10.0,NNW,9.2,-,N/A,,Clear,330,2011-10-19 09:35:00
5:15 AM,28.8,20.3,71,30.06,10.0,NNW,11.5,-,N/A,,Clear,330,2011-10-19 10:15:00
5:35 AM,28.2,20.1,72,30.06,10.0,NNW,9.2,-,N/A,,Clear,330,2011-10-19 10:35:00
5:55 AM,27.7,20.1,73,30.06,10.0,NNW,10.4,-,N/A,,Clear,330,2011-10-19 10:55:00
6:15 AM,27.9,20.3,73,30.06,10.0,NNW,11.5,-,N/A,,Clear,340,2011-10-19 11:15:00
6:35 AM,27.9,20.1,73,30.07,10.0,NNW,13.8,-,N/A,,Clear,330,2011-10-19 11:35:00
7:15 AM,28.9,20.5,71,30.07,10.0,NNW,12.7,-,N/A,,Clear,340,2011-10-19 12:15:00
7:35 AM,28.8,20.3,71,30.08,10.0,NNW,12.7,-,N/A,,Scattered Clouds,340,2011-10-19 12:35:00
7:55 AM,28.9,20.5,71,30.08,10.0,NNW,13.8,18.4,N/A,,Mostly Cloudy,340,2011-10-19 12:55:00
8:15 AM,30.4,21.0,68,30.09,10.0,NNW,13.8,-,N/A,,Overcast,330,2011-10-19 13:15:00
8:35 AM,31.5,20.8,65,30.09,10.0,NNW,17.3,-,N/A,,Overcast,340,2011-10-19 13:35:00
9:15 AM,32.5,20.7,62,30.09,10.0,NNW,15.0,-,N/A,,Overcast,340,2011-10-19 14:15:00
9:35 AM,34.0,20.8,59,30.09,10.0,North,15.0,18.4,N/A,,Overcast,350,2011-10-19 14:35:00
9:55 AM,35.6,21.2,56,30.10,10.0,North,15.0,19.6,N/A,,Overcast,350,2011-10-19 14:55:00
10:15 AM,37.2,22.1,54,30.10,10.0,NNW,15.0,19.6,N/A,,Mostly Cloudy,340,2011-10-19 15:15:00
10:35 AM,37.8,22.3,54,30.10,10.0,North,15.0,-,N/A,,Scattered Clouds,350,2011-10-19 15:35:00
10:55 AM,38.1,22.5,53,30.10,10.0,North,16.1,-,N/A,,Scattered Clouds,350,2011-10-19 15:55:00
11:15 AM,39.4,23.0,52,30.11,10.0,North,16.1,19.6,N/A,,Mostly Cloudy,10,2011-10-19 16:15:00
11:55 AM,41.0,23.4,50,30.10,10.0,North,16.1,25.3,N/A,,Mostly Cloudy,360,2011-10-19 16:55:00
12:15 PM,42.1,23.2,47,30.10,10.0,North,17.3,20.7,N/A,,Overcast,10,2011-10-19 17:15:00
12:55 PM,42.6,23.7,47,30.09,10.0,NNW,16.1,20.7,N/A,,Overcast,330,2011-10-19 17:55:00
1:15 PM,43.2,23.7,46,30.09,10.0,North,12.7,-,N/A,,Overcast,360,2011-10-19 18:15:00
1:35 PM,43.0,24.4,48,30.08,10.0,North,16.1,20.7,N/A,,Overcast,350,2011-10-19 18:35:00
1:55 PM,43.2,25.0,49,30.08,10.0,NNW,13.8,21.9,N/A,,Overcast,330,2011-10-19 18:55:00
2:15 PM,44.1,25.3,48,30.07,10.0,North,15.0,19.6,N/A,,Overcast,350,2011-10-19 19:15:00
2:35 PM,45.3,25.5,46,30.07,10.0,NW,12.7,20.7,N/A,,Overcast,320,2011-10-19 19:35:00
2:55 PM,44.8,25.3,47,30.06,10.0,North,11.5,17.3,N/A,,Overcast,350,2011-10-19 19:55:00
3:15 PM,46.0,25.2,44,30.06,10.0,North,15.0,19.6,N/A,,Overcast,350,2011-10-19 20:15:00
3:35 PM,45.1,25.2,46,30.06,10.0,North,18.4,21.9,N/A,,Overcast,350,2011-10-19 20:35:00
3:55 PM,45.5,25.5,46,30.06,10.0,North,13.8,-,N/A,,Overcast,360,2011-10-19 20:55:00
4:15 PM,45.3,25.5,46,30.06,10.0,North,13.8,-,N/A,,Overcast,360,2011-10-19 21:15:00
4:35 PM,45.0,25.7,47,30.06,10.0,North,16.1,-,N/A,,Overcast,350,2011-10-19 21:35:00
4:55 PM,44.8,25.7,47,30.06,10.0,North,11.5,19.6,N/A,,Overcast,350,2011-10-19 21:55:00
5:15 PM,44.6,25.7,48,30.06,10.0,NNW,12.7,-,N/A,,Overcast,340,2011-10-19 22:15:00
5:35 PM,44.6,25.9,48,30.06,10.0,North,12.7,-,N/A,,Overcast,350,2011-10-19 22:35:00
5:55 PM,44.2,26.2,49,30.06,10.0,NNW,13.8,-,N/A,,Overcast,340,2011-10-19 22:55:00
6:15 PM,44.2,26.8,50,30.06,10.0,North,15.0,18.4,N/A,,Overcast,10,2011-10-19 23:15:00
6:35 PM,43.7,27.3,53,30.06,10.0,NNE,18.4,-,N/A,,Overcast,20,2011-10-19 23:35:00
6:55 PM,43.2,27.5,54,30.06,10.0,North,13.8,19.6,N/A,,Overcast,10,2011-10-19 23:55:00
7:15 PM,42.6,27.1,54,30.07,10.0,North,16.1,-,N/A,,Overcast,360,2011-10-20 00:15:00
7:35 PM,42.1,27.0,55,30.07,10.0,North,12.7,-,N/A,,Overcast,360,2011-10-20 00:35:00
7:55 PM,41.9,27.1,56,30.07,10.0,North,10.4,-,N/A,,Overcast,360,2011-10-20 00:55:00
8:15 PM,41.5,27.3,57,30.07,10.0,North,13.8,-,N/A,,Overcast,10,2011-10-20 01:15:00
8:35 PM,41.5,27.5,57,30.07,10.0,North,12.7,-,N/A,,Overcast,360,2011-10-20 01:35:00
8:55 PM,41.2,27.5,58,30.07,10.0,North,15.0,20.7,N/A,,Overcast,360,2011-10-20 01:55:00
9:15 PM,41.2,27.9,59,30.07,10.0,North,15.0,18.4,N/A,,Overcast,10,2011-10-20 02:15:00
9:35 PM,41.2,27.9,59,30.07,10.0,North,10.4,-,N/A,,Overcast,350,2011-10-20 02:35:00
9:55 PM,41.0,27.9,60,30.07,10.0,North,12.7,17.3,N/A,,Overcast,360,2011-10-20 02:55:00
10:15 PM,41.0,27.9,60,30.07,10.0,North,13.8,-,N/A,,Overcast,360,2011-10-20 03:15:00
10:35 PM,40.5,27.9,61,30.07,10.0,North,9.2,-,N/A,,Overcast,10,2011-10-20 03:35:00
10:55 PM,39.4,27.7,63,30.06,10.0,North,11.5,-,N/A,,Mostly Cloudy,10,2011-10-20 03:55:00
11:15 PM,38.1,27.0,64,30.06,10.0,North,8.1,-,N/A,,Clear,360,2011-10-20 04:15:00
11:35 PM,36.5,26.1,66,30.05,10.0,North,8.1,-,N/A,,Clear,350,2011-10-20 04:35:00
11:55 PM,32.9,24.4,71,30.04,10.0,NNW,6.9,-,N/A,,Clear,340,2011-10-20 04:55:00